Weather History for PACD - March, 2013

Change the Weather History Date:

Tuesday, March 26, 2013

  Actual Average Record
Temperature  
Mean Temperature 26 °F 31 °F  
Max Temperature 29 °F 36 °F 47 °F (1965)
Min Temperature 22 °F 26 °F 7 °F (1976)
Degree Days  
Heating Degree Days 39 34  
Month to date heating degree days 908 909  
Since 1 July heating degree days 7322 7133  
Cooling Degree Days 0    
Month to date cooling degree days 0  
Year to date cooling degree days 0  
Moisture  
Dew Point 23 °F    
Average Humidity 81    
Maximum Humidity 93    
Minimum Humidity 67    
Precipitation  
Precipitation 0.06 in 0.08 in 0.67 in (1973)
Month to date precipitation 2.20 2.31  
Year to date precipitation 9.14 8.45  
Snow  
Snow 0.90 in 0.40 in 6.10 in (1994)
Month to date snowfall 7.3 11.1  
Since 1 July snowfall 59.1 63.3  
Snow Depth 1.00 in    
Sea Level Pressure  
Sea Level Pressure 29.93 in    
Wind  
Wind Speed 11 mph (ENE)    
Max Wind Speed 14 mph    
Max Gust Speed 16 mph    
Visibility 6 miles    
Events Snow    
T = Trace of Precipitation, MM = Missing Value Source: NWS Daily Summary

Daily Weather History Graph

Daily Weather History Graph

Search for Another Location

Airport or City:

Trip Planner

Search our weather history database for the weather conditions in past years. The results will help you decide how hot, cold, wet, or windy it might be!

Date:

Astronomy

Mar. 26, 2013 Rise Set
Actual Time 8:36 AM AKDT 9:17 PM AKDT
Civil Twilight 7:59 AM AKDT 9:54 PM AKDT
Nautical Twilight 7:15 AM AKDT 10:38 PM AKDT
Astronomical Twilight 6:28 AM AKDT 11:26 PM AKDT
Moon 9:13 PM AKDT (3/26) 8:00 AM AKDT (3/26)
Length of Visible Light 13h 54m
Length of Day
12h 41m
Full, 100% of the Moon is Illuminated
Mar 26
Full
Mar 27
Full
Apr 2
Last Quarter
Apr 10
New
Apr 18
First Quarter

Hourly Weather History & Observations

Time (AKDT) Temp. Windchill Dew Point Humidity Pressure Visibility Wind Dir Wind Speed Gust Speed Precip Events Conditions
12:22 AM 23.0 °F 13.1 °F 19.4 °F 86% 29.93 in 5.0 mi NNE 9.2 mph - 0.00 in Snow Light Snow
12:48 AM 24.8 °F 16.1 °F 21.2 °F 86% 29.93 in 3.0 mi NE 8.1 mph - 0.00 in Snow Light Snow
12:53 AM 24.1 °F 16.0 °F 21.0 °F 88% 29.94 in 2.5 mi NE 6.9 mph - 0.01 in Snow Light Snow
1:06 AM 24.8 °F 16.9 °F 21.2 °F 86% 29.94 in 1.8 mi NNE 6.9 mph - 0.00 in Snow Light Snow
1:14 AM 24.8 °F 16.9 °F 21.2 °F 86% 29.94 in 2.0 mi NE 6.9 mph - 0.00 in Snow Light Snow
1:33 AM 26.6 °F 17.5 °F 23.0 °F 86% 29.93 in 2.5 mi ESE 9.2 mph - 0.01 in Snow Light Snow
1:40 AM 26.6 °F 18.2 °F 23.0 °F 86% 29.93 in 3.0 mi ESE 8.1 mph - 0.01 in Snow Light Snow
1:53 AM 26.1 °F 16.8 °F 23.0 °F 88% 29.94 in 2.5 mi ESE 9.2 mph - 0.01 in Snow Light Snow
2:08 AM 26.6 °F 16.8 °F 23.0 °F 86% 29.93 in 2.5 mi ESE 10.4 mph - 0.00 in Snow Light Snow
2:15 AM 24.8 °F 16.9 °F 21.2 °F 86% 29.92 in 2.5 mi NNE 6.9 mph - 0.00 in Snow Light Snow
2:24 AM 23.0 °F 13.1 °F 19.4 °F 86% 29.93 in 1.8 mi NNE 9.2 mph - 0.00 in Snow Light Snow
2:46 AM 23.0 °F 12.4 °F 19.4 °F 86% 29.92 in 2.0 mi NNE 10.4 mph - 0.01 in Snow Light Snow
2:53 AM 23.0 °F 12.4 °F 19.9 °F 88% 29.93 in 2.0 mi NNE 10.4 mph - 0.01 in Snow Light Snow
3:53 AM 21.9 °F 11.0 °F 19.0 °F 89% 29.93 in 2.5 mi NNE 10.4 mph - 0.01 in Snow Light Snow
4:35 AM 21.2 °F 10.9 °F 17.6 °F 86% 29.92 in 3.0 mi NNE 9.2 mph - 0.01 in Snow Light Snow
4:53 AM 21.9 °F 10.4 °F 18.0 °F 85% 29.92 in 6.0 mi NNE 11.5 mph - 0.01 in Snow Light Snow
5:28 AM 23.0 °F 13.1 °F 19.4 °F 86% 29.92 in 2.5 mi NNE 9.2 mph - 0.01 in Snow Light Snow
5:41 AM 21.2 °F 10.9 °F 19.4 °F 93% 29.92 in 3.0 mi North 9.2 mph - 0.01 in Snow Light Snow
5:53 AM 21.9 °F 11.7 °F 19.0 °F 89% 29.93 in 4.0 mi NNE 9.2 mph - 0.01 in Snow Light Snow
6:05 AM 23.0 °F 13.1 °F 19.4 °F 86% 29.92 in 2.0 mi NNE 9.2 mph - 0.00 in Snow Light Snow
6:27 AM 21.2 °F 11.7 °F 19.4 °F 93% 29.92 in 3.0 mi NNE 8.1 mph - 0.01 in Snow Light Snow
6:53 AM 21.9 °F 11.0 °F 18.0 °F 85% 29.92 in 4.0 mi NNE 10.4 mph - 0.01 in Snow Light Snow
7:53 AM 21.9 °F 11.0 °F 18.0 °F 85% 29.93 in 7.0 mi NNE 10.4 mph - 0.00 in Snow Light Snow
8:53 AM 23.0 °F 12.4 °F 19.0 °F 85% 29.94 in 7.0 mi NNE 10.4 mph - 0.00 in Snow Light Snow
9:53 AM 24.1 °F 15.2 °F 19.0 °F 81% 29.94 in 6.0 mi NNE 8.1 mph - 0.00 in Snow Light Snow
10:53 AM 25.0 °F 17.1 °F 19.0 °F 78% 29.96 in 10.0 mi NNE 6.9 mph - 0.00 in   Mostly Cloudy
11:53 AM 28.0 °F 20.8 °F 21.9 °F 78% 29.97 in 10.0 mi NE 6.9 mph - N/A   Scattered Clouds
12:53 PM 30.9 °F 26.2 °F 24.1 °F 76% 29.96 in 10.0 mi East 4.6 mph - N/A   Partly Cloudy
1:53 PM 32.0 °F 27.5 °F 25.0 °F 75% 29.96 in 10.0 mi Variable 4.6 mph - N/A   Scattered Clouds
2:53 PM 35.1 °F 26.4 °F 27.0 °F 72% 29.97 in 10.0 mi SSE 12.7 mph - N/A   Partly Cloudy
3:53 PM 36.0 °F 27.5 °F 28.9 °F 76% 29.96 in 10.0 mi SE 12.7 mph - N/A   Overcast
4:53 PM 34.0 °F 22.7 °F 27.0 °F 75% 29.92 in 10.0 mi ESE 19.6 mph - N/A   Scattered Clouds
5:04 PM 35.6 °F 24.8 °F 28.4 °F 75% 29.91 in 10.0 mi SE 19.6 mph - N/A   Mostly Cloudy
5:34 PM 37.4 °F 27.8 °F 28.4 °F 70% 29.91 in 10.0 mi SE 17.3 mph - N/A   Partly Cloudy
5:53 PM 35.1 °F 24.8 °F 28.0 °F 76% 29.91 in 10.0 mi SSE 17.3 mph - N/A   Partly Cloudy
6:17 PM 33.8 °F 22.2 °F 26.6 °F 75% 29.91 in 10.0 mi SSE 20.7 mph - N/A   Mostly Cloudy
6:28 PM 33.8 °F 22.2 °F 26.6 °F 75% 29.91 in 10.0 mi SSE 20.7 mph 26.5 mph N/A   Scattered Clouds
6:50 PM 35.6 °F 25.5 °F 28.4 °F 75% 29.92 in 10.0 mi SSE 17.3 mph 26.5 mph N/A   Mostly Cloudy
6:53 PM 35.1 °F 23.8 °F 28.0 °F 76% 29.92 in 10.0 mi SSE 20.7 mph 25.3 mph N/A   Mostly Cloudy
7:53 PM 34.0 °F 22.4 °F 27.0 °F 75% 29.92 in 10.0 mi SSE 20.7 mph - N/A   Overcast
8:53 PM 33.1 °F 21.2 °F 27.0 °F 78% 29.91 in 10.0 mi SE 20.7 mph - N/A   Overcast
9:53 PM 33.1 °F 21.5 °F 27.0 °F 78% 29.91 in 10.0 mi SSE 19.6 mph - N/A   Overcast
10:27 PM 33.8 °F 22.2 °F 28.4 °F 81% 29.88 in 10.0 mi SE 20.7 mph - N/A   Overcast
10:53 PM 34.0 °F 22.1 °F 28.0 °F 79% 29.88 in 10.0 mi SE 21.9 mph 31.1 mph N/A   Mostly Cloudy
11:53 PM 35.1 °F 23.8 °F 28.0 °F 76% 29.86 in 10.0 mi SE 20.7 mph 31.1 mph N/A   Overcast